DELTA 1 DEB, 7137

Orbit data source: Space-Track

DELTA 1 DEB, 7137 is space debris in SSO originally from a launch on Tue, 06 Nov 1973 UTC launched from the Air Force Western Test Range (AFWTR). Debris objects in space refer to the collection of defunct objects orbiting the Earth. Examples of debris include non-operational satellites, rocket bodies, and fragments generated from explosions, collisions, or faulty payload assembly.

Loading next visibility...
Identifier
7137, 1973-086DB
Orbit
SSO
Country
Flag of USUS
Related business
Manufacturer
Unknown
Mission
Spacecraft
Bus & Motor
Unknown
Mass
Unknown
Launch date (UTC)
1973-11-06 (52 years ago)
Launch vehicle
Unknown
Launch site
Air Force Western Test Range (AFWTR)
Object type
Payload
Rocket body
Debris
Shape & HBR
Unknown shape, 0.2 m
Radar Cross Section
Small (<0.1 m²)

Expand to show TLE details & history
Last TLE update: 7 hours ago

TLE from 7 hours ago
0 DELTA 1 DEB
1  7137U 73086DB  26034.45451052  .00000298  00000-0  19993-2 0  9995
2  7137 101.7313  20.2339 0038302  10.6056 120.6901 12.59092150390093
Epoch: 2026-02-03T10:54Z
TLE epoch observation values (Epoch: 2026-02-03T10:54:29.708Z)
Latitude
47.09192°
Longitude
-84.18053°
Altitude
1,449.09 km
Speed
7.135 km/s
True Right ascension
14h 12m 18s
True Declination
46° 56' 08"
Sunlit
Object was in daylight at epoch
Visualization orbit readout
Latitude
Unknown
Longitude
Unknown
Altitude
Unknown
Speed
Unknown
Apparent Right ascension
Unknown
Apparent Declination
Unknown
Sunlit
N/A
Visualization observer readout
Local Sidereal Time
19:36:33
Azimuth
Unknown
Elevation
Unknown
Doppler factor
Unknown
Orbital elements
Apogee altitude
1,454.112 km
Perigee altitude
1,394.343 km
Semi-major axis
7,802.365 km
Eccentricity
0.00383
Inclination
101.7313°
RAAN
20.2339°
Arg. of periapsis
10.6056°
True anomaly
121.06661°
Mean anomaly
120.6901°
Eccentric anomaly
120.87845°
Mean motion
3.14923 °/min
Orbital period
114.31 mins
BSTAR
0.0019993
Loading maneuver chart data...
Computing Atmospheric mass density...
Loading historical data...
Loading historical data...
Loading historical data...
Loading historical data...
Loading historical data...
Loading historical data...
Loading historical data...

Documentation

Showing up to 5 results
|